CBERS 4

Last updated on Sat May 17 2025 00:02:28 GMT+0000 (Coordinated Universal Time)

1 40336U 14079A 25136.85369942 .00000121 00000+0 56743-4 0 9992 2 40336 98.3545 201.6873 0002011 82.7064 277.4351 14.35499994547114
UTC large
Height (km)
Speed (km/s)
/
Latitude / Longitude
Inclination (degrees)
Orbital Period (minutes)
Azimuth
Elevation
Range (km)
Doppler Factor

Next 0 passes for location: London (51.5072 / 0.1276)

Sorry there are no passes over London.